{"data":{"norad_id":59188,"epoch":"2026-05-24T22:35:21.732864Z","epoch_age_seconds":70297,"freshness":"FRESH","line1":"1 59188U 24045L   26144.94122376  .00035216  00000+0  12822-2 0  9990","line2":"2 59188  43.0009  21.8581 0002003 263.4633  96.5991 15.27603780124821","mean_motion":15.2760378,"eccentricity":0.0002003,"inclination_deg":43.0009,"raan_deg":21.8581,"arg_perigee_deg":263.4633,"mean_anomaly_deg":96.5991,"bstar":0.0012822,"rev_number":12482,"period_min":94.265281276013,"perigee_km":481.60360977587,"apogee_km":484.35217240124,"semimajor_km":6861.1148910886,"source":"CELESTRAK","updated_at":"2026-05-25T13:38:18.860722Z"}}